EN

Hourly Weather Luczyce

Today, 26 November, Thursday

Time Temperature Precipitation Wind Pressure Humidity
00:00 +1°C° 0 mm 1 mps 750 mmHg 79%
01:00 +1°C° 0 mm 1 mps 750 mmHg 79%
02:00 +1°C° 0 mm 1 mps 750 mmHg 81%
03:00 +1°C° 0 mm 1 mps 749 mmHg 82%
04:00 +1°C° 0 mm 1 mps 749 mmHg 82%
05:00 +1°C° 0 mm 1 mps 749 mmHg 83%
06:00 +1°C° 0 mm 1 mps 749 mmHg 84%
07:00 0°C° 0 mm 1 mps 749 mmHg 84%
08:00 0°C° 0 mm 1 mps 749 mmHg 87%
09:00 +1°C° 0 mm 2 mps 749 mmHg 81%
10:00 +2°C° 0 mm 2 mps 749 mmHg 75%
11:00 +3°C° 0 mm 2 mps 749 mmHg 69%
12:00 +4°C° 0 mm 2 mps 749 mmHg 65%
13:00 +5°C° 0 mm 2 mps 749 mmHg 62%
14:00 +5°C° 0 mm 2 mps 749 mmHg 59%
15:00 +4°C° 0 mm 2 mps 748 mmHg 66%
16:00 +2°C° 0 mm 2 mps 748 mmHg 72%
17:00 +1°C° 0 mm 2 mps 748 mmHg 79%
18:00 -1°C° 0 mm 2 mps 748 mmHg 80%
19:00 -1°C° 0 mm 2 mps 748 mmHg 82%
20:00 -1°C° 0 mm 2 mps 748 mmHg 83%
21:00 -1°C° 0 mm 2 mps 748 mmHg 83%
22:00 -1°C° 0 mm 2 mps 748 mmHg 82%
23:00 -2°C° 0 mm 2 mps 748 mmHg 82%

Tomorrow, 27 November, Friday

Time Temperature Precipitation Wind Pressure Humidity
00:00 -1°C° 0 mm 2 mps 748 mmHg 81%
01:00 -1°C° 0 mm 2 mps 748 mmHg 80%
02:00 -1°C° 0 mm 2 mps 748 mmHg 79%
03:00 -1°C° 0 mm 2 mps 747 mmHg 78%
04:00 -1°C° 0 mm 2 mps 747 mmHg 77%
05:00 0°C° 0 mm 3 mps 747 mmHg 76%
06:00 +1°C° 0 mm 2 mps 747 mmHg 74%
07:00 +2°C° 0 mm 2 mps 747 mmHg 73%
08:00 +2°C° 0 mm 2 mps 747 mmHg 71%
09:00 +3°C° 0 mm 2 mps 747 mmHg 71%
10:00 +3°C° 0 mm 2 mps 747 mmHg 71%
11:00 +4°C° 0 mm 2 mps 747 mmHg 71%
12:00 +4°C° 0 mm 2 mps 747 mmHg 72%
13:00 +3°C° 0 mm 3 mps 747 mmHg 74%
14:00 +3°C° 0 mm 3 mps 747 mmHg 75%
15:00 +3°C° 0.1 mm 3 mps 746 mmHg 80%
16:00 +2°C° 0.1 mm 3 mps 746 mmHg 84%
17:00 +2°C° 0.1 mm 3 mps 746 mmHg 88%
18:00 +2°C° 0.1 mm 3 mps 746 mmHg 90%
19:00 +2°C° 0.1 mm 2 mps 746 mmHg 93%
20:00 +2°C° 0.1 mm 2 mps 747 mmHg 95%
21:00 +2°C° 0 mm 2 mps 746 mmHg 94%
22:00 +2°C° 0 mm 2 mps 746 mmHg 94%
23:00 +2°C° 0 mm 2 mps 746 mmHg 93%

Day after tomorrow, 28 November, Saturday

Time Temperature Precipitation Wind Pressure Humidity
00:00 +3°C° 0 mm 2 mps 746 mmHg 92%
01:00 +3°C° 0 mm 2 mps 746 mmHg 90%
02:00 +3°C° 0 mm 2 mps 746 mmHg 89%
03:00 +3°C° 0 mm 2 mps 745 mmHg 88%
04:00 +3°C° 0 mm 2 mps 745 mmHg 87%
05:00 +2°C° 0 mm 2 mps 745 mmHg 86%
06:00 +2°C° 0 mm 2 mps 745 mmHg 85%
07:00 +2°C° 0 mm 2 mps 745 mmHg 84%
08:00 +1°C° 0 mm 3 mps 745 mmHg 84%
09:00 +1°C° 0 mm 3 mps 745 mmHg 83%
10:00 +2°C° 0 mm 3 mps 745 mmHg 83%
11:00 +2°C° 0 mm 3 mps 744 mmHg 82%
12:00 +3°C° 0.2 mm 2 mps 744 mmHg 83%
13:00 +3°C° 0.2 mm 2 mps 744 mmHg 83%
14:00 +3°C° 0.2 mm 2 mps 744 mmHg 83%
15:00 +3°C° 0.2 mm 2 mps 744 mmHg 87%
16:00 +3°C° 0.2 mm 1 mps 744 mmHg 90%
17:00 +3°C° 0.2 mm 1 mps 744 mmHg 93%
18:00 +3°C° 0.2 mm 1 mps 744 mmHg 93%
19:00 +3°C° 0.2 mm 1 mps 745 mmHg 93%
20:00 +2°C° 0.2 mm 1 mps 745 mmHg 94%
21:00 +2°C° 0.2 mm 1 mps 745 mmHg 94%
22:00 +2°C° 0.2 mm 1 mps 745 mmHg 95%
23:00 +1°C° 0.2 mm 2 mps 745 mmHg 96%

29 November, Sunday

Time Temperature Precipitation Wind Pressure Humidity
00:00 +1°C° 0.3 mm 2 mps 745 mmHg 96%
01:00 -1°C° 0.3 mm 2 mps 745 mmHg 96%
02:00 -1°C° 0.3 mm 2 mps 746 mmHg 96%
03:00 -1°C° 0.4 mm 3 mps 746 mmHg 96%
04:00 -2°C° 0.4 mm 3 mps 745 mmHg 95%
05:00 -2°C° 0.4 mm 3 mps 745 mmHg 95%
06:00 -2°C° 0.2 mm 3 mps 745 mmHg 95%
07:00 -4°C° 0.2 mm 3 mps 745 mmHg 95%
08:00 -4°C° 0.2 mm 3 mps 746 mmHg 95%
09:00 -4°C° 0.1 mm 3 mps 746 mmHg 92%
10:00 -2°C° 0.1 mm 3 mps 746 mmHg 90%
11:00 -2°C° 0.1 mm 3 mps 746 mmHg 87%
12:00 -1°C° 0 mm 3 mps 746 mmHg 85%
13:00 -1°C° 0 mm 2 mps 746 mmHg 82%
14:00 -1°C° 0 mm 2 mps 746 mmHg 80%
15:00 -1°C° 0 mm 2 mps 746 mmHg 83%
16:00 0°C° 0 mm 1 mps 746 mmHg 85%
17:00 0°C° 0 mm 1 mps 746 mmHg 88%
18:00 0°C° 0 mm 1 mps 746 mmHg 88%
19:00 0°C° 0 mm 1 mps 746 mmHg 88%
20:00 0°C° 0 mm 1 mps 746 mmHg 89%
21:00 -1°C° 0 mm 1 mps 747 mmHg 90%
22:00 -1°C° 0 mm 1 mps 747 mmHg 91%
23:00 -2°C° 0 mm 1 mps 747 mmHg 92%

30 November, Monday

Time Temperature Precipitation Wind Pressure Humidity
00:00 -2°C° 0 mm 1 mps 747 mmHg 92%
01:00 -2°C° 0 mm 1 mps 747 mmHg 92%
02:00 -2°C° 0 mm 1 mps 748 mmHg 92%
03:00 -2°C° 0 mm 1 mps 748 mmHg 92%
04:00 -2°C° 0 mm 1 mps 748 mmHg 92%
05:00 -2°C° 0 mm 1 mps 748 mmHg 93%
06:00 -3°C° 0 mm 0 mps 749 mmHg 92%
07:00 -2°C° 0 mm 0 mps 749 mmHg 91%
08:00 -2°C° 0 mm 0 mps 750 mmHg 91%
09:00 -1°C° 0 mm 0 mps 750 mmHg 87%
10:00 0°C° 0 mm 1 mps 751 mmHg 84%
11:00 +1°C° 0 mm 1 mps 751 mmHg 81%
12:00 +1°C° 0 mm 1 mps 751 mmHg 79%
13:00 +1°C° 0 mm 1 mps 751 mmHg 78%
14:00 +1°C° 0 mm 1 mps 751 mmHg 77%
15:00 +1°C° 0 mm 1 mps 752 mmHg 79%
16:00 0°C° 0 mm 1 mps 752 mmHg 81%
17:00 0°C° 0 mm 1 mps 752 mmHg 83%
18:00 0°C° 0 mm 1 mps 753 mmHg 83%
19:00 0°C° 0 mm 1 mps 753 mmHg 83%
20:00 0°C° 0 mm 1 mps 754 mmHg 83%
21:00 0°C° 0 mm 1 mps 754 mmHg 83%
22:00 0°C° 0 mm 1 mps 754 mmHg 84%
23:00 -1°C° 0 mm 1 mps 754 mmHg 84%

1 December, Tuesday

Time Temperature Precipitation Wind Pressure Humidity
00:00 -3°C° 0 mm 2 mps 754 mmHg 84%
01:00 -3°C° 0 mm 2 mps 754 mmHg 84%
02:00 -3°C° 0 mm 2 mps 754 mmHg 84%
03:00 -3°C° 0 mm 2 mps 754 mmHg 85%
04:00 -3°C° 0 mm 2 mps 754 mmHg 85%
05:00 -3°C° 0 mm 2 mps 754 mmHg 86%
06:00 -3°C° 0 mm 2 mps 754 mmHg 87%
07:00 -3°C° 0 mm 2 mps 754 mmHg 87%
08:00 -3°C° 0 mm 2 mps 754 mmHg 88%
09:00 -3°C° 0 mm 2 mps 754 mmHg 86%
10:00 -2°C° 0 mm 2 mps 754 mmHg 84%
11:00 -2°C° 0 mm 2 mps 754 mmHg 81%
12:00 -1°C° 0 mm 2 mps 754 mmHg 80%
13:00 -1°C° 0 mm 2 mps 754 mmHg 79%
14:00 +1°C° 0 mm 2 mps 754 mmHg 78%
15:00 -1°C° 0 mm 2 mps 754 mmHg 81%
16:00 -2°C° 0 mm 2 mps 753 mmHg 84%
17:00 -2°C° 0 mm 2 mps 753 mmHg 87%
18:00 -2°C° 0 mm 2 mps 754 mmHg 88%
19:00 -2°C° 0 mm 2 mps 754 mmHg 90%
20:00 -2°C° 0 mm 2 mps 754 mmHg 91%
21:00 -3°C° 0 mm 2 mps 754 mmHg 92%
22:00 -3°C° 0 mm 2 mps 754 mmHg 94%
23:00 -3°C° 0 mm 2 mps 754 mmHg 95%
Show more